TimeCDT,TemperatureF,Dew PointF,Humidity,Sea Level PressureIn,VisibilityMPH,Wind Direction,Wind SpeedMPH,Gust SpeedMPH,PrecipitationIn,Events,Conditions,WindDirDegrees,DateUTC
12:56 AM,72.0,62.1,71,29.94,10.0,Calm,Calm,-,N/A,,Partly Cloudy,0,2013-09-07 05:56:00
1:56 AM,73.0,62.1,68,29.94,10.0,SW,4.6,-,N/A,,Scattered Clouds,220,2013-09-07 06:56:00
2:56 AM,66.9,62.1,84,29.94,10.0,Calm,Calm,-,N/A,,Clear,0,2013-09-07 07:56:00
3:56 AM,69.1,62.1,78,29.93,10.0,Calm,Calm,-,N/A,,Clear,0,2013-09-07 08:56:00
4:56 AM,70.0,62.1,76,29.92,10.0,Calm,Calm,-,N/A,,Clear,0,2013-09-07 09:56:00
5:56 AM,66.9,62.1,84,29.91,9.0,Calm,Calm,-,N/A,,Clear,0,2013-09-07 10:56:00
6:56 AM,64.0,62.1,93,29.92,7.0,Calm,Calm,-,N/A,,Clear,0,2013-09-07 11:56:00
7:56 AM,71.1,64.0,78,29.92,8.0,Calm,Calm,-,N/A,,Scattered Clouds,0,2013-09-07 12:56:00
8:56 AM,73.0,64.9,76,29.91,9.0,Calm,Calm,-,N/A,,Mostly Cloudy,0,2013-09-07 13:56:00
9:56 AM,77.0,64.9,66,29.91,10.0,SW,3.5,-,N/A,,Clear,230,2013-09-07 14:56:00
10:56 AM,82.9,66.9,58,29.89,10.0,Variable,5.8,-,N/A,,Clear,0,2013-09-07 15:56:00
11:56 AM,84.0,66.9,56,29.89,10.0,WSW,4.6,-,N/A,,Clear,240,2013-09-07 16:56:00
12:56 PM,86.0,68.0,55,29.87,10.0,NW,5.8,-,N/A,,Clear,320,2013-09-07 17:56:00
1:56 PM,88.0,70.0,55,29.86,10.0,WNW,5.8,-,N/A,,Clear,290,2013-09-07 18:56:00
2:56 PM,90.0,70.0,52,29.85,10.0,Calm,Calm,-,N/A,,Partly Cloudy,0,2013-09-07 19:56:00
3:56 PM,89.1,70.0,53,29.86,10.0,Calm,Calm,-,N/A,,Clear,0,2013-09-07 20:56:00
4:56 PM,90.0,70.0,52,29.85,10.0,SSE,4.6,-,N/A,,Clear,150,2013-09-07 21:56:00
5:56 PM,90.0,71.1,54,29.86,10.0,Calm,Calm,-,N/A,,Clear,0,2013-09-07 22:56:00
6:56 PM,84.9,73.9,69,29.87,10.0,Calm,Calm,-,N/A,,Clear,0,2013-09-07 23:56:00
7:56 PM,79.0,73.0,82,29.88,9.0,Calm,Calm,-,N/A,,Clear,0,2013-09-08 00:56:00
8:56 PM,75.0,72.0,90,29.90,7.0,South,3.5,-,N/A,,Clear,170,2013-09-08 01:56:00
9:56 PM,73.9,72.0,93,29.91,7.0,Calm,Calm,-,N/A,,Partly Cloudy,0,2013-09-08 02:56:00
10:56 PM,73.0,71.1,93,29.91,5.0,Calm,Calm,-,N/A,,Scattered Clouds,0,2013-09-08 03:56:00
11:56 PM,77.0,68.0,74,29.94,10.0,East,15.0,23.0,N/A,,Clear,90,2013-09-08 04:56:00